Temp
-4 -4 -3 -4 -4 -4 -4 -4 -4 -4 -4 -3 -3 -4 -4 -4 -4 -4 -4 -3 -3 -3 -3 -4 -4 -4 -4 -4 -4 -4 -4 -4 -4 -4 -4 -4 -4 -5 -5 -5 -6 -6 -6 -6 -7 -7 -7 -8 -8
-4 -4 -4 -4 -4 -4 -4 -4 -3 -3 -4 -4 -4 -4 -4 -4 -4 -4 -4 -3 -3 -3 -3 -4 -4 -4 -4 -4 -4 -4 -4 -4 -4 -4 -4 -4 -5 -5 -5 -5 -6 -6 -6 -7 -7 -7 -7 -7 -7
-4 -4 -4 -4 -4 -4 -4 -4 -3 -3 -4 -4 -4 -4 -4 -4 -4 -4 -4 -3 -3 -3 -4 -3 -4 -4 -4 -4 -4 -4 -4 -4 -4 -4 -5 -5 -5 -5 -5 -5 -6 -6 -6 -7 -7 -7 -7 -7 -8
-4 -4 -5 -5 -4 -3 -4 -4 -4 -3 -4 -4 -4 -4 -5 -4 -4 -4 -4 -4 -3 -3 -4 -4 -4 -4 -4 -4 -4 -4 -4 -4 -4 -4 -5 -5 -5 -5 -5 -5 -6 -6 -6 -7 -7 -7 -7 -7 -7
-5 -5 -5 -4 -4 -3 -3 -3 -3 -3 -4 -4 -4 -5 -5 -4 -4 -4 -4 -4 -3 -3 -4 -4 -4 -4 -4 -4 -4 -4 -4 -4 -5 -5 -5 -5 -5 -5 -5 -5 -6 -6 -6 -7 -7 -7 -7 -7 -7
-4 -5 -4 -4 -5 -5 -3 -3 -4 -4 -5 -3 -4 -5 -5 -5 -5 -4 -5 -5 -4 -4 -4 -4 -4 -4 -4 -4 -4 -4 -4 -4 -5 -5 -5 -5 -5 -5 -5 -6 -6 -6 -6 -7 -7 -7 -7 -8 -7
-5 -5 -5 -5 -5 -5 -5 -5 -4 -4 -4 -4 -4 -4 -5 -5 -5 -4 -5 -5 -6 -5 -4 -4 -4 -4 -4 -4 -4 -4 -5 -4 -5 -5 -5 -5 -5 -5 -6 -6 -6 -6 -6 -7 -7 -7 -7 -7 -6
-6 -6 -5 -5 -5 -6 -5 -4 -4 -4 -3 -5 -5 -5 -5 -5 -5 -4 -5 -5 -5 -6 -5 -5 -4 -4 -4 -4 -5 -4 -5 -5 -5 -5 -5 -5 -5 -6 -6 -6 -6 -6 -6 -6 -7 -6 -7 -7 -7
-5 -5 -4 -6 -5 -5 -5 -5 -5 -5 -4 -5 -4 -4 -4 -4 -5 -4 -5 -5 -5 -6 -5 -5 -4 -4 -4 -4 -5 -5 -5 -5 -5 -5 -6 -5 -5 -5 -6 -6 -6 -6 -6 -6 -6 -7 -7 -6 -7
-5 -5 -6 -6 -5 -6 -4 -5 -5 -4 -4 -4 -4 -5 -5 -5 -5 -5 -5 -5 -5 -6 -6 -5 -5 -4 -4 -5 -5 -5 -5 -5 -5 -6 -6 -5 -6 -6 -6 -6 -5 -6 -6 -6 -6 -7 -7 -7 -7
-7 -7 -7 -6 -6 -4 -6 -5 -4 -5 -5 -5 -4 -4 -4 -5 -5 -5 -5 -5 -5 -5 -6 -6 -6 -5 -4 -5 -5 -5 -5 -6 -6 -6 -6 -6 -6 -6 -6 -6 -6 -6 -6 -6 -6 -6 -7 -7 -7
-6 -7 -7 -6 -5 -5 -5 -4 -4 -4 -3 -4 -4 -4 -4 -5 -5 -5 -5 -4 -5 -6 -6 -5 -6 -5 -6 -5 -6 -6 -6 -6 -6 -6 -6 -7 -6 -6 -6 -6 -6 -6 -6 -6 -7 -6 -6 -6 -7
-6 -6 -7 -7 -6 -5 -5 -6 -4 -4 -4 -4 -4 -4 -4 -5 -5 -5 -5 -5 -4 -5 -6 -6 -6 -6 -6 -6 -5 -6 -6 -6 -6 -6 -6 -6 -6 -6 -6 -6 -6 -6 -6 -6 -6 -6 -6 -7 -7
-6 -7 -6 -6 -5 -5 -5 -4 -3 -4 -4 -4 -4 -3 -4 -5 -5 -5 -5 -5 -5 -5 -4 -6 -6 -6 -6 -6 -6 -6 -6 -6 -6 -6 -6 -6 -6 -6 -6 -6 -6 -5 -5 -6 -6 -6 -6 -6 -7
-6 -7 -7 -6 -6 -5 -5 -5 -5 -4 -4 -4 -4 -3 -4 -5 -5 -5 -4 -5 -5 -5 -5 -6 -6 -6 -6 -6 -6 -6 -6 -6 -6 -7 -6 -6 -7 -6 -5 -6 -6 -6 -6 -5 -5 -6 -6 -6 -6
-7 -7 -7 -6 -6 -6 -5 -5 -5 -5 -4 -4 -4 -4 -4 -4 -4 -5 -5 -5 -5 -5 -6 -5 -6 -6 -6 -6 -6 -6 -6 -6 -6 -6 -7 -7 -6 -6 -6 -5 -5 -6 -6 -6 -7 -6 -6 -6 -6
-7 -7 -7 -6 -6 -6 -6 -6 -5 -5 -5 -4 -4 -5 -4 -4 -3 -4 -5 -5 -6 -5 -6 -6 -6 -7 -7 -6 -7 -7 -6 -6 -6 -6 -6 -7 -6 -6 -6 -5 -6 -6 -6 -6 -7 -6 -6 -6 -6
-6 -6 -6 -6 -6 -7 -7 -7 -6 -5 -5 -4 -4 -4 -4 -4 -4 -4 -4 -5 -5 -6 -5 -7 -6 -7 -7 -8 -7 -7 -6 -7 -6 -6 -6 -6 -6 -7 -6 -6 -6 -6 -6 -6 -6 -6 -6 -6 -6
-6 -6 -6 -6 -6 -7 -6 -6 -6 -5 -5 -4 -4 -4 -4 -4 -4 -4 -4 -5 -5 -6 -6 -6 -6 -6 -8 -8 -8 -7 -7 -6 -6 -6 -6 -6 -6 -6 -5 -5 -5 -6 -6 -6 -6 -6 -6 -6 -6
-6 -6 -6 -6 -6 -6 -6 -6 -6 -6 -5 -4 -5 -5 -5 -4 -4 -4 -4 -5 -5 -5 -5 -6 -6 -7 -8 -8 -8 -7 -6 -6 -6 -6 -6 -5 -5 -5 -5 -5 -5 -6 -6 -5 -5 -6 -7 -6 -7
-6 -6 -6 -6 -6 -6 -5 -6 -6 -5 -5 -5 -5 -5 -5 -5 -5 -5 -4 -5 -5 -5 -5 -6 -6 -7 -7 -7 -7 -7 -6 -6 -6 -6 -6 -6 -6 -6 -5 -5 -6 -6 -6 -6 -6 -6 -6 -7 -6
-6 -6 -6 -6 -6 -6 -6 -6 -6 -5 -5 -5 -5 -5 -5 -5 -5 -5 -5 -5 -5 -5 -5 -6 -7 -7 -7 -6 -6 -6 -6 -6 -6 -6 -6 -7 -6 -6 -6 -6 -6 -6 -6 -6 -6 -6 -6 -7 -7
-6 -6 -5 -5 -6 -6 -6 -6 -6 -7 -6 -5 -5 -5 -5 -5 -5 -5 -5 -5 -5 -5 -6 -6 -6 -6 -6 -6 -6 -6 -6 -6 -6 -6 -6 -6 -6 -6 -6 -6 -7 -7 -7 -7 -7 -6 -6 -6 -6
-5 -6 -5 -5 -6 -6 -6 -6 -6 -6 -6 -6 -6 -5 -5 -5 -6 -6 -6 -6 -5 -5 -5 -5 -6 -5 -6 -6 -6 -6 -6 -6 -6 -6 -7 -6 -6 -4 -6 -7 -7 -7 -6 -6 -7 -7 -6 -6 -6
-6 -6 -6 -6 -7 -6 -6 -6 -7 -6 -7 -7 -7 -7 -6 -6 -6 -6 -6 -6 -6 -6 -6 -6 -6 -6 -6 -6 -6 -7 -7 -7 -6 -6 -7 -7 -7 -7 -7 -6 -7 -7 -7 -6 -7 -7 -6 -6 -6
-6 -6 -6 -6 -5 -5 -6 -7 -6 -6 -6 -6 -7 -7 -6 -7 -7 -7 -7 -6 -7 -6 -6 -6 -6 -6 -6 -6 -7 -6 -6 -7 -7 -6 -7 -6 -7 -7 -7 -6 -7 -6 -6 -7 -6 -6 -6 -6 -6
-6 -6 -6 -5 -5 -6 -6 -7 -7 -6 -6 -7 -8 -7 -5 -7 -7 -7 -7 -6 -6 -6 -6 -6 -6 -6 -6 -6 -6 -7 -7 -7 -7 -6 -6 -7 -7 -7 -7 -7 -7 -6 -6 -6 -6 -6 -6 -6 -6
-6 -6 -5 -5 -5 -5 -7 -7 -7 -6 -7 -7 -8 -6 -7 -7 -7 -7 -7 -6 -6 -6 -6 -6 -6 -6 -6 -6 -7 -7 -7 -7 -7 -7 -6 -7 -6 -7 -7 -7 -7 -6 -6 -7 -6 -6 -6 -6 -6
-6 -6 -6 -6 -5 -6 -6 -6 -6 -7 -7 -7 -8 -8 -7 -7 -8 -8 -7 -7 -6 -6 -6 -6 -6 -6 -6 -7 -7 -7 -7 -7 -7 -7 -6 -6 -6 -7 -7 -7 -7 -7 -7 -7 -7 -7 -7 -7 -6
-7 -6 -5 -6 -5 -6 -6 -6 -6 -7 -8 -7 -7 -8 -8 -8 -8 -9 -9 -8 -7 -7 -7 -6 -6 -6 -7 -7 -7 -7 -7 -7 -7 -7 -7 -7 -8 -8 -7 -7 -7 -7 -7 -7 -7 -7 -7 -7 -7
Height
5884 5886 5887 5889 5892 5890 5888 5889 5890 5891 5894 5895 5895 5898 5900 5901 5903 5907 5906 5908 5909 5909 5910 5912 5910 5911 5912 5911 5911 5912 5912 5913 5914 5914 5913 5913 5913 5913 5912 5912 5911 5910 5911 5910 5910 5909 5908 5908 5908
5885 5886 5886 5887 5889 5888 5890 5888 5888 5893 5894 5895 5897 5897 5898 5900 5903 5905 5907 5908 5910 5911 5912 5913 5913 5913 5913 5914 5913 5914 5914 5915 5916 5916 5915 5915 5915 5915 5915 5914 5914 5914 5914 5913 5913 5913 5913 5912 5912
5884 5885 5888 5889 5887 5888 5887 5880 5888 5890 5892 5894 5896 5898 5898 5900 5902 5906 5908 5910 5911 5913 5913 5914 5915 5916 5916 5916 5916 5916 5916 5917 5918 5918 5917 5917 5916 5916 5917 5916 5916 5917 5916 5916 5915 5914 5914 5914 5914
5884 5885 5887 5886 5887 5889 5889 5887 5889 5892 5892 5894 5895 5896 5898 5899 5902 5905 5908 5911 5912 5914 5914 5916 5916 5918 5918 5918 5918 5918 5918 5919 5920 5919 5919 5918 5919 5919 5919 5918 5918 5918 5917 5916 5915 5914 5914 5913 5914
5882 5883 5884 5886 5884 5888 5890 5890 5890 5892 5892 5893 5893 5894 5898 5899 5902 5905 5908 5911 5913 5914 5915 5917 5918 5919 5919 5919 5919 5920 5920 5920 5920 5921 5921 5922 5922 5921 5921 5920 5920 5919 5918 5918 5917 5917 5916 5917 5917
5880 5881 5883 5883 5886 5885 5886 5890 5889 5891 5893 5892 5891 5893 5897 5899 5901 5905 5909 5909 5913 5915 5914 5917 5918 5919 5920 5921 5920 5921 5922 5921 5923 5924 5924 5924 5923 5923 5924 5924 5923 5922 5920 5919 5919 5919 5918 5916 5917
5876 5876 5880 5883 5889 5889 5887 5889 5889 5891 5892 5892 5892 5893 5896 5898 5900 5905 5909 5909 5911 5915 5914 5915 5918 5919 5920 5921 5922 5922 5922 5922 5924 5925 5925 5924 5923 5924 5925 5925 5924 5923 5921 5920 5922 5922 5920 5919 5918
5877 5880 5882 5885 5888 5890 5888 5888 5889 5889 5891 5893 5892 5894 5895 5897 5898 5901 5905 5906 5907 5910 5913 5915 5917 5917 5919 5920 5922 5922 5923 5923 5924 5924 5925 5925 5924 5925 5926 5925 5925 5924 5924 5922 5922 5923 5922 5923 5922
5884 5889 5885 5888 5891 5890 5890 5892 5892 5891 5895 5893 5892 5892 5893 5895 5897 5897 5901 5904 5903 5906 5910 5914 5915 5916 5918 5921 5923 5922 5923 5924 5924 5927 5928 5926 5925 5924 5924 5924 5924 5924 5924 5924 5923 5923 5926 5924 5922
5882 5887 5888 5893 5892 5894 5892 5895 5895 5894 5896 5894 5892 5891 5891 5892 5895 5896 5899 5903 5901 5902 5907 5912 5915 5917 5920 5923 5924 5923 5923 5924 5926 5929 5928 5921 5916 5925 5925 5924 5925 5923 5924 5925 5926 5926 5923 5920 5922
5891 5889 5895 5898 5898 5896 5895 5897 5897 5897 5898 5895 5890 5889 5889 5890 5892 5895 5896 5899 5900 5901 5905 5910 5915 5918 5921 5923 5924 5924 5923 5924 5927 5929 5928 5925 5925 5927 5927 5927 5925 5922 5925 5924 5928 5927 5922 5921 5921
5892 5896 5900 5903 5900 5898 5897 5896 5897 5899 5896 5894 5891 5888 5888 5890 5891 5894 5896 5897 5900 5900 5904 5910 5914 5917 5921 5923 5925 5925 5924 5926 5927 5929 5929 5929 5928 5928 5926 5927 5923 5923 5924 5927 5927 5929 5928 5925 5926
5898 5899 5907 5906 5904 5901 5896 5895 5895 5895 5897 5892 5889 5888 5887 5888 5891 5894 5896 5897 5899 5901 5903 5909 5913 5915 5920 5923 5924 5926 5925 5926 5927 5929 5929 5929 5928 5927 5923 5927 5924 5921 5924 5926 5928 5928 5924 5924 5926
5898 5904 5910 5909 5908 5906 5905 5901 5898 5894 5895 5893 5891 5888 5887 5887 5891 5894 5897 5899 5901 5902 5904 5907 5911 5915 5919 5922 5924 5926 5926 5927 5929 5929 5929 5928 5927 5926 5928 5928 5926 5922 5924 5918 5916 5929 5927 5926 5927
5891 5899 5911 5911 5910 5907 5906 5902 5899 5898 5897 5896 5891 5891 5889 5889 5892 5895 5898 5900 5901 5904 5907 5909 5911 5915 5919 5921 5923 5926 5927 5929 5927 5929 5932 5930 5929 5928 5930 5929 5927 5925 5926 5927 5928 5930 5929 5927 5929
5897 5895 5910 5911 5913 5908 5907 5904 5902 5900 5899 5898 5895 5892 5891 5892 5893 5896 5897 5899 5901 5903 5907 5910 5914 5916 5918 5920 5922 5926 5928 5928 5928 5930 5931 5931 5932 5930 5930 5929 5925 5927 5929 5932 5931 5931 5929 5930 5931
5912 5910 5913 5914 5916 5912 5913 5909 5905 5903 5900 5900 5898 5896 5896 5895 5895 5896 5897 5898 5899 5904 5906 5909 5913 5915 5918 5921 5923 5926 5928 5927 5929 5932 5932 5932 5927 5932 5928 5930 5927 5929 5929 5932 5932 5933 5932 5930 5931
5913 5914 5914 5916 5915 5911 5909 5912 5910 5908 5906 5903 5901 5899 5899 5898 5897 5896 5895 5896 5899 5901 5904 5906 5908 5914 5917 5920 5923 5925 5928 5928 5929 5932 5932 5932 5931 5929 5929 5932 5931 5931 5931 5932 5932 5930 5932 5933 5932
5915 5922 5918 5918 5917 5910 5905 5917 5916 5912 5909 5908 5906 5905 5902 5903 5901 5898 5896 5897 5898 5900 5901 5903 5906 5910 5915 5920 5924 5927 5928 5928 5929 5932 5933 5932 5931 5931 5931 5931 5931 5930 5931 5931 5929 5927 5929 5930 5931
5918 5923 5920 5918 5918 5915 5918 5918 5915 5913 5912 5912 5912 5909 5906 5905 5904 5903 5902 5901 5900 5900 5901 5902 5904 5908 5914 5919 5925 5926 5927 5928 5928 5931 5931 5930 5929 5929 5929 5928 5927 5927 5927 5928 5928 5928 5928 5930 5930
5921 5922 5919 5917 5917 5914 5915 5917 5917 5915 5914 5914 5914 5912 5911 5909 5907 5907 5907 5906 5905 5904 5906 5906 5905 5911 5917 5922 5925 5926 5926 5926 5926 5925 5927 5927 5924 5921 5922 5921 5922 5925 5926 5925 5926 5928 5928 5928 5930
5916 5917 5919 5920 5917 5914 5912 5915 5919 5918 5917 5917 5917 5917 5914 5912 5911 5911 5910 5909 5910 5909 5909 5910 5912 5916 5919 5923 5924 5925 5924 5924 5925 5925 5923 5923 5920 5920 5920 5919 5921 5921 5923 5924 5923 5923 5924 5924 5926
5915 5916 5917 5916 5916 5918 5911 5916 5917 5919 5918 5919 5920 5919 5919 5916 5915 5914 5913 5914 5913 5913 5913 5915 5916 5918 5920 5922 5923 5922 5923 5923 5924 5924 5921 5919 5920 5919 5919 5918 5918 5920 5921 5922 5924 5922 5921 5923 5925
5912 5917 5917 5916 5916 5912 5912 5914 5913 5915 5918 5916 5919 5919 5918 5916 5916 5915 5915 5914 5914 5916 5916 5917 5917 5918 5920 5921 5921 5921 5921 5922 5923 5921 5918 5918 5909 5899 5913 5913 5915 5917 5920 5920 5920 5921 5920 5920 5923
5910 5914 5913 5915 5912 5912 5910 5908 5913 5911 5914 5915 5914 5915 5917 5916 5915 5915 5917 5917 5916 5915 5916 5916 5917 5918 5920 5921 5921 5920 5920 5920 5921 5919 5918 5918 5916 5897 5911 5900 5912 5918 5918 5920 5918 5919 5920 5919 5920
5910 5913 5914 5910 5910 5909 5906 5908 5909 5909 5909 5906 5912 5915 5914 5913 5914 5915 5917 5918 5918 5917 5917 5917 5916 5917 5916 5918 5919 5919 5919 5918 5919 5917 5915 5917 5918 5915 5915 5912 5910 5917 5916 5917 5917 5916 5918 5918 5916
5909 5909 5910 5910 5911 5901 5901 5900 5905 5907 5908 5905 5902 5908 5907 5904 5908 5913 5915 5918 5918 5918 5917 5916 5916 5915 5915 5916 5916 5917 5917 5916 5915 5916 5913 5913 5914 5913 5912 5913 5913 5915 5915 5914 5917 5915 5914 5916 5914
5909 5911 5911 5910 5910 5904 5900 5900 5904 5903 5904 5898 5885 5903 5893 5868 5896 5908 5911 5912 5914 5915 5916 5916 5914 5913 5914 5914 5914 5914 5914 5914 5913 5912 5910 5908 5908 5909 5912 5912 5913 5913 5912 5915 5915 5912 5913 5913 5912
5905 5905 5906 5907 5908 5905 5901 5903 5896 5899 5892 5885 5884 5894 5889 5887 5896 5907 5909 5910 5910 5912 5912 5912 5911 5910 5910 5911 5912 5912 5911 5909 5909 5909 5907 5904 5902 5903 5907 5908 5909 5911 5910 5912 5912 5911 5910 5909 5908
5899 5903 5904 5905 5907 5902 5900 5899 5896 5895 5887 5879 5888 5889 5897 5887 5908 5910 5911 5911 5910 5909 5908 5909 5908 5908 5908 5909 5909 5909 5908 5907 5906 5905 5902 5901 5898 5898 5903 5906 5907 5908 5909 5909 5908 5907 5906 5905 5904
Wind_Speed
8 7 7 7 6 4 5 2 4 2 2 3 4 2 4 7 5 5 2 5 6 8 8 8 11 8 7 9 12 13 15 14 13 13 14 14 12 13 13 13 15 14 15 15 14 16 17 16 15
7 8 8 7 6 7 5 6 5 3 2 4 3 4 5 4 6 6 4 6 7 7 8 8 10 8 8 10 13 13 14 14 14 14 14 13 13 12 12 12 13 12 13 13 14 14 15 14 15
8 5 8 7 10 8 3 12 3 4 2 5 7 8 5 4 4 7 7 7 7 8 8 8 9 8 8 10 12 12 13 14 12 11 10 10 11 11 11 11 12 11 12 12 12 13 13 13 15
12 7 6 7 2 3 5 4 5 5 0 4 7 8 9 8 6 8 8 8 9 9 8 9 9 8 8 10 11 12 12 12 11 9 8 8 8 10 10 10 11 11 10 10 11 11 10 11 12
14 8 10 8 4 4 4 4 2 1 2 4 5 10 11 7 6 7 8 9 10 10 9 8 10 9 9 8 10 11 12 10 9 8 7 7 7 7 7 9 9 9 10 9 8 8 9 9 10
13 12 16 18 13 8 6 5 3 2 1 4 5 3 8 9 8 10 6 12 9 11 11 9 9 10 9 7 10 9 11 9 7 6 7 7 6 6 8 8 8 8 8 7 7 8 9 6 6
7 20 19 17 11 12 14 5 7 4 3 5 3 1 3 6 10 11 4 16 13 15 15 12 11 10 9 8 8 8 8 8 6 6 7 7 6 7 10 7 6 7 5 7 8 9 7 8 5
15 18 19 14 11 13 12 9 7 6 4 3 4 4 6 8 7 6 9 14 16 15 15 14 14 12 9 8 9 9 7 6 5 5 6 6 5 5 6 9 5 5 6 7 8 7 8 10 5
19 24 15 16 11 13 13 11 11 11 10 7 3 6 9 10 7 6 6 6 11 15 21 18 17 15 11 8 7 8 6 5 5 5 6 4 5 4 4 9 2 2 5 6 8 8 9 9 9
23 19 20 17 5 10 8 9 12 15 5 9 2 5 7 10 10 6 6 6 9 16 26 20 18 14 12 8 6 7 7 5 5 6 6 0 10 11 9 7 5 2 3 6 11 7 3 3 11
23 28 20 12 11 7 6 2 5 8 7 10 8 5 5 8 9 7 5 4 1 14 24 23 18 13 12 9 8 7 8 7 5 4 6 2 4 5 5 8 2 1 9 9 10 10 7 7 10
34 30 24 17 13 11 9 7 11 9 10 10 7 6 3 3 8 10 7 3 6 6 21 22 19 18 19 11 10 8 7 6 4 2 3 3 2 1 8 9 6 2 7 3 8 10 9 9 8
27 32 23 18 17 12 18 16 15 14 15 16 11 8 3 5 7 8 7 4 6 6 19 23 25 23 20 15 11 9 9 5 4 1 0 4 5 10 4 15 4 2 2 6 6 7 9 8 8
21 19 20 19 19 18 12 7 14 17 18 18 15 9 9 8 8 9 8 7 7 11 12 14 25 16 21 13 12 9 8 7 4 0 3 4 7 10 6 16 11 8 7 1 10 6 6 7 11
18 25 21 18 18 15 15 18 17 17 16 16 19 16 13 11 8 8 9 9 10 11 9 16 23 21 18 14 12 11 10 7 6 2 2 5 9 12 3 12 12 10 7 4 1 3 8 6 10
17 20 16 19 14 8 13 18 18 18 18 17 19 23 16 12 5 8 9 13 10 7 10 16 18 19 18 16 14 12 10 8 9 5 4 5 7 6 10 13 18 10 4 1 3 2 6 8 6
20 11 8 19 18 8 7 19 19 20 18 18 18 19 19 18 12 1 7 11 12 8 9 12 24 24 21 18 14 11 8 9 7 4 4 7 8 7 9 13 14 15 11 1 2 1 2 5 6
17 12 14 20 22 11 19 19 17 15 17 18 18 17 16 16 17 13 4 12 11 9 13 11 11 22 26 18 16 15 9 7 4 5 6 8 11 12 12 11 12 11 9 11 8 6 6 5 6
17 2 18 22 16 14 20 12 12 13 15 17 18 18 18 16 17 20 19 15 5 9 10 13 16 12 23 18 14 11 5 3 3 3 6 9 9 9 8 9 8 8 11 14 10 9 12 9 8
14 6 12 14 11 12 9 9 11 13 14 14 14 16 19 20 20 18 19 20 22 18 9 11 14 17 24 20 13 8 4 2 3 5 8 11 11 8 8 8 7 7 7 6 13 6 9 7 9
2 4 8 14 17 27 17 9 8 8 7 7 8 9 12 13 17 19 19 18 18 19 20 22 22 16 14 12 8 7 6 6 7 9 8 9 9 10 9 7 5 5 5 5 5 4 9 8 6
10 9 17 18 20 27 23 23 18 10 10 3 3 6 10 12 13 13 15 17 17 18 17 15 13 12 8 6 5 4 5 6 5 7 9 12 13 12 8 6 6 4 4 4 3 4 11 15 8
8 11 3 1 11 14 27 28 30 7 2 5 4 3 2 8 10 11 12 13 13 12 13 13 11 10 8 6 4 2 3 4 5 7 10 14 12 13 8 4 3 3 1 3 6 2 4 7 12
12 9 13 12 9 20 20 22 26 14 11 14 7 4 1 4 8 9 10 10 8 9 9 7 5 6 6 6 5 3 0 3 3 6 9 10 12 18 6 5 3 1 3 2 6 6 3 2 4
6 9 16 18 9 19 22 21 7 5 10 14 15 13 6 6 6 5 5 8 9 8 6 5 4 2 1 2 2 2 3 4 4 6 8 10 15 12 8 8 3 7 4 5 3 5 6 5 2
5 3 13 11 7 23 23 14 16 16 12 14 19 16 12 10 5 5 7 8 8 7 6 5 4 4 4 4 6 5 5 7 7 9 11 11 10 8 6 8 8 6 2 2 3 3 3 1 2
15 12 10 4 6 18 22 11 9 18 19 39 29 29 20 16 5 4 3 3 6 7 8 4 3 4 4 5 5 7 8 10 12 12 15 15 12 6 7 3 2 4 4 3 5 3 3 6 5
4 8 3 5 9 18 20 11 18 23 23 24 40 29 29 34 10 12 12 10 6 10 10 7 6 7 6 5 4 5 9 12 14 12 14 17 17 13 10 10 8 8 5 7 8 7 6 5 8
7 11 10 16 7 15 22 25 23 21 26 36 17 12 9 12 11 8 12 15 14 13 13 11 10 5 3 4 6 11 14 12 11 12 15 20 19 16 14 13 12 10 11 11 10 9 8 5 5
12 8 12 14 7 21 21 24 27 25 26 33 5 18 12 17 2 4 8 12 12 16 15 15 11 6 4 5 10 10 7 6 7 11 16 16 17 17 16 14 14 14 12 14 13 12 11 8 8
Wind_Direction
164 172 172 184 198 193 232 94 133 139 111 54 39 124 119 145 148 176 177 159 157 137 132 128 114 102 108 121 118 115 107 100 101 93 87 86 78 75 68 67 68 73 70 65 67 65 65 68 74
156 176 184 186 213 233 249 247 176 225 310 292 217 211 194 197 192 189 192 183 172 152 143 131 117 110 105 115 118 114 106 102 105 98 88 84 81 76 70 66 63 65 69 66 65 65 62 64 66
117 142 186 203 224 240 264 160 207 252 267 280 255 236 208 215 212 208 197 192 189 163 154 150 128 125 114 121 122 119 114 112 112 100 102 89 84 82 81 72 69 62 61 62 62 59 61 61 62
125 118 179 172 358 246 267 289 210 261 107 259 296 252 229 211 212 208 207 200 205 178 162 166 144 134 128 123 122 125 123 118 114 113 111 98 85 82 75 74 71 66 64 63 61 60 64 65 68
156 154 154 149 70 117 162 188 208 247 65 328 306 218 189 184 173 193 204 212 206 192 178 176 160 153 145 134 124 123 127 120 125 123 104 92 77 73 75 70 69 65 63 60 58 59 53 55 62
158 134 110 84 49 44 50 98 129 131 25 352 42 154 214 215 214 208 200 228 217 209 190 183 176 165 162 152 137 129 127 127 119 109 98 77 64 57 47 50 48 59 54 62 52 49 51 58 83
150 114 96 85 80 62 69 70 67 94 53 37 20 75 190 225 239 226 269 255 223 208 206 182 183 170 171 168 159 146 139 129 114 97 91 84 67 53 27 32 29 46 47 53 47 41 47 50 102
61 111 118 100 52 91 86 78 86 83 70 79 329 309 260 257 257 226 253 236 249 226 201 192 185 180 183 178 179 167 152 126 114 108 100 77 76 55 6 8 9 17 22 38 45 52 39 45 115
61 105 100 79 84 91 58 20 49 42 39 44 358 285 252 246 238 248 230 214 255 199 195 197 191 191 184 173 171 175 168 147 133 106 85 74 66 27 24 26 105 34 14 35 43 37 64 52 100
57 83 70 67 98 87 112 45 51 356 348 358 320 296 263 245 230 217 213 196 250 210 184 193 194 194 184 171 166 155 154 145 122 100 83 252 86 67 47 51 59 58 20 48 48 30 122 354 118
85 71 51 54 64 129 45 106 19 54 43 356 333 322 289 236 206 195 201 194 266 192 189 190 186 193 175 187 173 157 158 150 137 116 103 38 64 57 48 39 17 262 61 59 52 63 66 96 122
72 65 61 54 56 38 58 55 44 48 31 14 345 359 293 230 186 178 170 186 117 191 195 182 191 187 206 198 179 168 179 168 163 124 135 81 328 332 54 40 353 298 1 26 101 66 76 125 102
71 59 51 48 53 31 31 24 20 37 41 17 17 12 354 191 165 182 166 151 132 161 170 187 199 203 200 194 181 182 197 200 197 212 45 63 347 322 348 0 73 73 97 68 30 45 61 86 44
85 72 45 35 37 49 40 21 32 27 38 29 26 23 36 126 147 169 183 176 162 162 162 155 190 200 188 184 184 195 206 220 223 224 349 4 2 356 10 8 28 89 66 299 88 39 80 82 84
103 63 35 29 33 39 38 45 38 34 33 34 34 45 56 96 141 162 191 192 176 157 154 174 185 182 192 191 194 198 202 205 241 239 324 340 348 345 9 27 22 44 70 69 9 88 116 96 84
28 66 10 16 19 30 54 46 40 41 44 38 41 49 52 62 123 193 181 193 190 184 160 176 184 189 193 199 200 203 205 213 223 252 302 327 324 343 8 17 29 9 4 82 244 149 123 118 87
47 63 355 11 11 24 44 41 32 39 41 49 46 48 51 50 52 85 183 212 194 202 184 190 192 199 206 205 207 205 205 225 249 266 306 318 335 13 38 15 19 26 30 62 254 252 142 152 129
79 355 319 331 354 326 59 36 22 23 39 47 52 53 51 49 50 44 137 191 183 183 196 216 240 206 207 221 211 197 203 225 253 300 325 329 343 12 13 355 4 1 352 350 287 234 210 174 144
80 33 306 329 350 348 35 22 18 11 20 38 48 56 56 55 61 63 72 83 89 198 194 221 217 227 205 203 199 196 191 207 246 313 326 328 330 340 344 335 338 342 337 339 317 219 215 197 192
79 336 291 315 344 332 354 16 27 25 21 15 29 45 52 56 57 64 72 79 79 80 134 202 195 194 190 187 190 150 141 203 290 301 300 294 291 289 293 289 312 324 314 328 336 233 243 217 181
135 214 294 302 312 304 314 337 348 349 7 9 8 47 46 52 59 59 62 66 72 77 80 88 102 135 142 154 171 192 208 249 277 294 300 292 273 259 231 257 264 276 304 337 357 315 245 258 265
199 234 238 256 282 288 308 305 311 305 324 345 16 61 75 66 63 62 65 67 67 72 73 77 96 119 137 166 196 225 248 263 282 291 289 283 276 270 269 265 269 269 319 323 350 329 328 228 222
233 222 22 156 235 228 273 273 262 342 319 357 280 150 53 57 65 79 74 68 69 71 84 98 105 115 124 121 131 183 254 269 281 285 283 284 296 284 277 256 272 303 101 26 1 305 315 337 215
108 85 31 2 344 272 275 273 304 317 299 289 247 227 265 83 107 97 82 73 66 48 52 68 104 126 135 131 128 138 197 280 312 294 293 291 270 265 235 237 261 225 287 40 13 45 45 100 223
359 19 346 310 301 282 293 279 306 323 288 235 205 182 181 141 118 91 76 72 71 68 39 32 20 17 283 242 214 234 298 315 313 301 278 280 288 319 357 311 84 339 4 350 54 45 41 63 108
179 298 298 297 18 296 297 236 270 274 260 251 233 194 191 135 82 62 73 65 53 52 58 37 24 356 337 298 284 297 284 300 300 293 282 283 287 301 309 320 330 299 200 4 16 50 33 28 65
191 173 238 317 357 267 267 266 266 300 288 295 254 191 203 164 100 76 45 42 93 62 35 18 325 304 298 287 276 266 279 279 286 288 280 283 274 271 277 287 196 247 277 343 312 352 20 353 327
304 274 169 287 328 326 334 319 298 313 299 299 286 168 194 180 89 356 359 22 63 43 30 13 331 308 291 291 281 283 302 294 284 281 278 275 290 271 247 247 250 263 283 293 310 339 353 352 341
208 240 251 270 272 336 321 317 316 321 330 338 16 156 88 97 63 332 340 337 357 3 351 351 336 301 291 317 305 308 307 302 284 278 289 274 270 251 241 247 253 260 279 290 301 316 324 329 324
223 275 264 258 247 307 298 299 309 325 343 331 289 136 130 80 220 343 321 316 314 318 328 329 332 324 325 312 317 320 321 324 321 335 325 275 255 239 233 237 248 254 258 272 281 288 284 269 264